Weather Roundup
Issued by NWS Chicago, IL

Home | Current Version | Previous Version | Graphics & Text | Print | Product List | Glossary On
Versions: 1 2 3 4 5 6 7 8 9 10 11 12 13 14 15 16 17 18 19 20 21 22 23 24 25 26 27 28 29 30 31 32 33 34 35 36 37 38 39 40 41 42 43 44 45 46 47 48 49 50
000
NZUS59 KLOT 221308
HRRLOT

CHICAGO AREA WEATHER ROUNDUP
NATIONAL WEATHER SERVICE CHICAGO/ROMEOVILLE IL
700 AM CST MON JAN 22 2018

NOTE: "FAIR" INDICATES FEW OR NO CLOUDS BELOW 12,000 FEET WITH NO
SIGNIFICANT WEATHER AND/OR OBSTRUCTIONS TO VISIBILITY.

* THESE STATIONS ARE NOT UNDER NWS QUALITY CONTROL. THEY ALSO MAY NOT
  REPORT WEATHER SUCH AS PRECIPITATION OR FOG.

ILZ005-006-012>014-019>023-221400-
NORTHEAST ILLINOIS

CITY           SKY/WX    TMP DP  RH WIND       PRES   REMARKS
OHARE          LGT RAIN  48  47  96 SE12      29.60F FOG
MIDWAY         RAIN      48  48 100 E8        29.62F FOG
AURORA         LGT RAIN  48  48 100 E13       29.56F FOG
LANSING*       RAIN      49  49 100 S14G20    29.64F
JOLIET*        LGT RAIN  49  49 100 SE13G18   29.57F
WAUKEGAN       RAIN      40  40 100 NE7       29.63F FOG
DUPAGE AIRPORT LGT RAIN  48  48 100 E12       29.56F FOG
WHEELING       LGT RAIN  47  47 100 SE8       29.62F FOG
KANKAKEE*      LGT RAIN N/A N/A N/A S20G30    29.62F
MORRIS*        CLOUDY    48  47  98 SE14      29.53F
LEWIS AIRPORT* LGT RAIN  47  47 100 SE17      29.57F
NORTHERLY ISL    N/A     41  40  96 E1          N/A
$$

WIZ051-052-058>065-066-070>072-221400-
SOUTHEAST WISCONSIN

CITY           SKY/WX    TMP DP  RH WIND       PRES   REMARKS
MILWAUKEE      RAIN      37  37 100 NE14      29.67F VSB 1/2
KENOSHA*       HVY RAIN  41  39  93 E13       29.65S
RACINE*        RAIN      38  38 100 NE7       29.68F FOG
BURLINGTON     MIX PCPN  37  36  96 NE8       29.64F
WAUKESHA       RAIN      36  36 100 E10G18    29.69F VSB 1
WEST BEND      RAIN      36  36 100 NE16G23   29.70F
$$

INZ001>003-010>013-019-020-221400-
NORTHWEST INDIANA

CITY           SKY/WX    TMP DP  RH WIND       PRES   REMARKS
GARY*          LGT RAIN  52  50  93 SE8       29.66S
MICHIGAN CITY* NOT AVBL
RENSSELAER*    NOT AVBL
VALPARAISO     TSTM      49  46  90 S10       29.69R FOG
$$

LMZ740>746-221400-
SOUTHERN LAKE MICHIGAN

STATION/POSITION TIME  SKY/WX   TEMP WIND        PRES    VSBY
                                AIR  DIR/SP/G
                 (UTC)          (F)  (DEG/KT/KT) (MB)    (MI)
HARRISON CRIB    1240            46  120/ 10/ 11   N/A
BURNHAM HARBOR   1300            41   CALM  /  5   N/A
CALUMET HARBOR   1230            46  310/  3/  5 1004.0R
BURNS HARBOR     1240            50  180/ 10/ 15 1005.4S
MICHIGAN CITY    1240            50  140/ 13/ 15   N/A
$$

ABBREVIATIONS USED IN REMARKS
   TC - TEMPERATURE IN CELSIUS
  WCI - WIND CHILL INDEX
   HX - HEAT INDEX
  VSB - VISIBILITY
$$




USA.gov is the U.S. government's official web portal to all federal, state and local government web resources and services.